"2009-02-25 00:00:30",659867,5.208,59.67,1.498,0.162,13.01,105.5241,13.41,14.33,19.81,0,110.5,13.31,14.21,21.7
"2009-02-25 00:01:00",659868,5.18,60.31,2.61,0.132,13.12,105.5181,13.4,14.31,19.59,0,110.5,13.31,14.20,22.3
"2009-02-25 00:01:30",659869,4.985,58.83,1.507,0.12,13.18,105.5268,13.42,14.31,19.17,0,110.5,13.31,14.22,20.8
"2009-02-25 00:02:00",659870,4.968,56.78,1.565,0.223,13.18,105.5316,13.43,14.32,19.29,0,110.5,13.31,14.23,18.8
"2009-02-25 00:02:30",659871,5.453,57.94,1.069,0.131,13.15,105.5322,13.43,14.32,19.3,0,110.5,13.31,14.23,19.9
"2009-02-25 00:03:00",659872,5.193,64.68,2.878,0.217,13.37,105.5339,13.44,14.31,19.19,0,110.5,13.31,14.24,26.7
"2009-02-25 00:03:30",659873,4.563,66.64,5.898,0.294,13.44,105.544,13.47,14.32,19.15,0,110.5,13.31,14.26,28.6
"2009-02-25 00:04:00",659874,4.476,57.11,2.259,0.203,13.36,105.5443,13.47,14.35,19.23,0,110.5,13.31,14.26,19.1
"2009-02-25 00:04:30",659875,5.085,62.02,6.422,1.362,14.4,105.5443,13.47,14.35,19.01,0,110.6,13.28,14.26,24.0
"2009-02-25 00:05:00",659876,5.694,71.01,5.787,1.305,15.8,105.5516,13.48,14.52,18.8,0,110.5,13.27,14.28,33.0
"2009-02-25 00:05:30",659877,3.574,64.94,2.999,0.583,13.65,105.5781,13.55,14.39,18.39,0,110.5,13.31,14.35,26.9
"2009-02-25 00:06:00",659878,3.878,67.49,10.52,0.367,13.26,105.6063,13.62,14.43,18.41,0,110.5,13.31,14.42,29.5
"2009-02-25 00:06:30",659879,3.113,76.24,4.424,0.244,13.27,105.6119,13.64,14.46,18.57,0,110.5,13.31,14.44,38.2
"2009-02-25 00:07:00",659880,3.382,63.09,3.995,0.27,13.15,105.6119,13.64,14.5,18.51,0,110.5,13.31,14.44,25.1
"2009-02-25 00:07:30",659881,4.011,59.9,2.961,0.123,13.02,105.6119,13.64,14.5,18.4,0,110.5,13.31,14.44,21.9
"2009-02-25 00:08:00",659882,3.739,69.11,6.255,0.449,13.15,105.6119,13.64,14.51,18.5,0,110.5,13.31,14.44,31.1
"2009-02-25 00:08:30",659883,2.414,57.01,7.078,0.196,13.17,105.6119,13.64,14.51,18.55,0,110.5,13.31,14.44,19.0
"2009-02-25 00:09:00",659884,3.483,58.38,7.982,0.322,13.24,105.6119,13.64,14.51,18.56,0,110.5,13.31,14.44,20.4
"2009-02-25 00:09:30",659885,3.267,61.6,7.629,0.243,13.34,105.6119,13.64,14.52,18.5,0,110.5,13.31,14.44,23.6
"2009-02-25 00:10:00",659886,3.933,64.08,9.33,0.392,13.24,105.6119,13.64,14.52,18.35,0,110.5,13.31,14.44,26.1
"2009-02-25 00:10:30",659887,4.14,64.02,3.823,0.345,13.3,105.6119,13.64,14.52,18.31,0,110.5,13.31,14.44,26.0
"2009-02-25 00:11:00",659888,4.01,64.04,3.602,0.217,13.37,105.6119,13.64,14.52,18.32,0,110.5,13.31,14.44,26.0
"2009-02-25 00:11:30",659889,4.395,62.12,1.657,0.242,13.44,105.6119,13.64,14.53,18.31,0,110.5,13.31,14.44,24.1
"2009-02-25 00:12:00",659890,4.08,59.79,4.046,0.128,13.5,105.6119,13.64,14.52,18.29,0,110.5,13.31,14.44,21.8
"2009-02-25 00:12:30",659891,4.026,62.87,3.377,0.153,13.57,105.6119,13.64,14.53,18.34,0,110.5,13.31,14.44,24.9
"2009-02-25 00:13:00",659892,3.761,56.73,3.097,0.341,13.56,105.6119,13.64,14.53,18.29,0,110.5,13.31,14.44,18.7
"2009-02-25 00:13:30",659893,5.111,61.42,6.386,1.261,14.93,105.6119,13.64,14.55,18.19,0,110.5,13.28,14.44,23.4
"2009-02-25 00:14:00",659894,4.726,66.14,10.78,1.152,15.97,105.6119,13.64,14.67,18.23,0,110.5,13.28,14.44,28.1
"2009-02-25 00:14:30",659895,3.95,59.64,3.195,0.652,13.46,105.6119,13.64,14.53,18.1,0,110.5,13.28,14.44,21.6
"2009-02-25 00:15:00",659896,4.266,58.82,1.884,0.119,13.2,105.6119,13.64,14.53,17.94,0,110.5,13.31,14.44,20.8
"2009-02-25 00:15:30",659897,4.11,56.64,1.041,0.074,13.14,105.6119,13.64,14.51,18.03,0,110.5,13.31,14.44,18.6
"2009-02-25 00:16:00",659898,3.915,58.97,1.894,0.255,13.23,105.6119,13.64,14.53,18.12,0,110.5,13.31,14.44,21.0
"2009-02-25 00:16:30",659899,3.477,59.16,2.316,0.18,13.21,105.6119,13.64,14.51,18.11,0,110.5,13.31,14.44,21.2
"2009-02-25 00:17:00",659900,3.216,53.36,4.961,0.178,13.22,105.6119,13.64,14.53,18.04,0,110.5,13.31,14.44,15.4
"2009-02-25 00:17:30",659901,2.57,64.14,15.91,0.298,13.3,105.6119,13.64,14.51,17.92,0,110.5,13.31,14.44,26.1
"2009-02-25 00:18:00",659902,2.698,73.01,5.668,0.405,13.28,105.6096,13.63,14.53,18.01,0,110.5,13.31,14.43,35.0
"2009-02-25 00:18:30",659903,2.306,88,6.995,0.309,13.34,105.6029,13.62,14.5,17.94,0,110.5,13.32,14.42,50.0
"2009-02-25 00:19:00",659904,1.93,93.3,11.17,0.302,13.52,105.6026,13.62,14.5,18.02,0,110.5,13.32,14.41,55.3
"2009-02-25 00:19:30",659905,1.863,102,6.125,0.185,13.58,105.6094,13.63,14.51,18.07,0,110.5,13.32,14.43,64.0
"2009-02-25 00:20:00",659906,1.389,117.4,8.86,0.245,13.48,105.6119,13.64,14.51,18.07,0,110.5,13.31,14.44,79.4
"2009-02-25 00:20:30",659907,1.418,98.7,10.2,0.189,13.39,105.6119,13.64,14.51,18.09,0,110.5,13.32,14.44,60.7
"2009-02-25 00:21:00",659908,1.597,56.89,15.34,0.227,13.39,105.6119,13.64,14.53,18.06,0,110.5,13.32,14.44,18.9
"2009-02-25 00:21:30",659909,2.284,50.44,8.83,0.594,13.57,105.6119,13.64,14.51,18.05,0,110.5,13.31,14.44,12.4
"2009-02-25 00:22:00",659910,3.567,52.59,1.443,0.114,13.39,105.6119,13.64,14.52,17.82,0,110.5,13.31,14.44,14.6
"2009-02-25 00:22:30",659911,4.035,53.73,3.42,0.297,13.5,105.6082,13.63,14.52,17.69,0,110.5,13.31,14.43,15.7
"2009-02-25 00:23:00",659912,3.796,58.17,1.494,0.406,13.45,105.5846,13.57,14.57,17.77,0,110.5,13.31,14.37,20.2
"2009-02-25 00:23:30",659913,4.382,61.51,11.41,1.354,15.48,105.5781,13.55,14.56,17.8,0,110.5,13.27,14.35,23.5
"2009-02-25 00:24:00",659914,3.922,55.16,3.247,0.155,13.36,105.5775,13.55,14.47,17.82,0,110.5,13.31,14.35,17.2
"2009-02-25 00:24:30",659915,3.794,68.28,8.67,0.256,13.54,105.5741,13.54,14.44,17.86,0,110.5,13.31,14.34,30.3
"2009-02-25 00:25:00",659916,3.882,67.7,8.07,0.378,13.38,105.5781,13.55,14.45,17.95,0,110.5,13.31,14.35,29.7
"2009-02-25 00:25:30",659917,2.988,86.5,21.5,0.573,13.54,105.5781,13.55,14.43,17.95,0,110.5,13.31,14.35,48.5
"2009-02-25 00:26:00",659918,2.467,110,4.407,0.258,13.68,105.5899,13.58,14.47,17.89,0,110.5,13.31,14.38,72.0
"2009-02-25 00:26:30",659919,1.736,118.5,7.848,0.185,13.71,105.6105,13.64,14.49,17.76,0,110.5,13.31,14.43,80.5
"2009-02-25 00:27:00",659920,1.226,103.2,33,0.371,13.68,105.622,13.66,14.51,17.66,0,110.5,13.32,14.46,65.2
"2009-02-25 00:27:30",659921,2.08,33.93,7.032,0.337,13.4,105.6446,13.72,14.55,17.59,0,110.5,13.32,14.52,355.9
"2009-02-25 00:28:00",659922,1.349,49.9,63.72,0.768,13.72,105.6457,13.73,14.55,17.56,0,110.5,13.32,14.53,11.9
"2009-02-25 00:28:30",659923,2.735,85.8,17.57,0.465,13.81,105.6457,13.73,14.59,17.53,0,110.5,13.32,14.53,47.8
"2009-02-25 00:29:00",659924,2.685,64.97,3.985,0.159,13.65,105.6457,13.73,14.59,17.55,0,110.5,13.32,14.53,27.0
"2009-02-25 00:29:30",659925,2.324,69.76,9.93,0.206,13.69,105.6457,13.73,14.6,17.54,0,110.5,13.32,14.53,31.8
"2009-02-25 00:30:00",659926,2.249,56.34,9.14,0.107,13.62,105.6457,13.73,14.61,17.55,0,110.5,13.32,14.53,18.3
"2009-02-25 00:30:30",659927,2.293,49.2,2.729,0.098,13.6,105.6263,13.68,14.58,17.55,0,110.5,13.32,14.48,11.2
"2009-02-25 00:31:00",659928,1.918,35.6,4.036,0.228,13.92,105.6119,13.64,14.64,17.76,0,110.5,13.32,14.44,357.6
"2009-02-25 00:31:30",659929,2.857,41.41,4.698,1.103,15.66,105.6122,13.64,14.64,17.84,0,110.5,13.28,14.44,3.4
"2009-02-25 00:32:00",659930,2.774,45.53,5.903,1.008,14.6,105.6119,13.64,14.69,17.9,0,110.5,13.28,14.44,7.5
"2009-02-25 00:32:30",659931,2.643,46.57,6.045,1.045,14.03,105.6119,13.64,14.67,17.89,0,110.5,13.28,14.44,8.6
"2009-02-25 00:33:00",659932,3.819,51.57,6.436,1.355,14.85,105.6119,13.64,14.58,17.72,0,110.5,13.28,14.44,13.6
"2009-02-25 00:33:30",659933,2.829,58.27,2.13,0.254,12.95,105.6116,13.64,14.53,17.69,0,110.5,13.32,14.44,20.3
"2009-02-25 00:34:00",659934,3.582,57.75,7.352,1.376,14.46,105.5961,13.6,14.56,17.76,0,110.5,13.28,14.40,19.8
"2009-02-25 00:34:30",659935,3.005,52.92,10.89,1.109,14.29,105.5926,13.59,14.67,17.91,0,110.5,13.28,14.39,14.9
"2009-02-25 00:35:00",659936,2.777,59.26,8.9,1.193,13.71,105.5959,13.6,14.49,17.81,0,110.5,13.28,14.40,21.3
"2009-02-25 00:35:30",659937,2.513,56.42,2.784,0.262,12.41,105.6033,13.62,14.5,17.82,0,110.5,13.32,14.42,18.4
"2009-02-25 00:36:00",659938,3.12,62.42,5.849,1.037,12.86,105.6006,13.61,14.54,17.79,0,110.5,13.28,14.41,24.4
"2009-02-25 00:36:30",659939,3.697,67.48,11.17,1.259,14.85,105.6007,13.61,14.66,17.91,0,110.5,13.28,14.41,29.5
"2009-02-25 00:37:00",659940,2.126,51.34,2.834,0.193,12.42,105.6029,13.62,14.5,17.81,0,110.5,13.32,14.42,13.3
"2009-02-25 00:37:30",659941,1.85,44.16,1.05,0.157,12.4,105.6081,13.63,14.5,17.89,0,110.5,13.32,14.43,6.2
"2009-02-25 00:38:00",659942,1.867,46.26,1.256,0.099,12.76,105.6118,13.64,14.51,17.84,0,110.5,13.31,14.44,8.3
"2009-02-25 00:38:30",659943,1.792,48.84,1.662,0.08,13.07,105.6172,13.65,14.53,17.79,0,110.5,13.32,14.45,10.8
"2009-02-25 00:39:00",659944,2.226,53.52,5.249,0.953,13.72,105.6215,13.66,14.52,17.78,0,110.5,13.28,14.46,15.5
"2009-02-25 00:39:30",659945,2.959,59.29,6.106,1.31,15.45,105.6227,13.67,14.68,17.93,0,110.5,13.28,14.47,21.3
"2009-02-25 00:40:00",659946,2.946,51.95,7.192,1.36,15,105.6247,13.67,14.59,17.8,0,110.5,13.28,14.47,14.0
"2009-02-25 00:40:30",659947,2.268,45.51,7.377,1.236,14.53,105.6283,13.68,14.7,17.93,0,110.5,13.28,14.48,7.5
"2009-02-25 00:41:00",659948,2.082,45.72,4.239,0.945,13.26,105.6313,13.69,14.54,17.77,0,110.5,13.28,14.49,7.7
"2009-02-25 00:41:30",659949,1.781,43.34,0.987,0.049,12.79,105.639,13.71,14.54,17.77,0,110.5,13.31,14.51,5.3
"2009-02-25 00:42:00",659950,1.666,42.92,1.017,0.058,12.81,105.6426,13.72,14.54,17.77,0,110.5,13.31,14.52,4.9
"2009-02-25 00:42:30",659951,1.581,29.89,10.81,0.349,13.82,105.6464,13.73,14.7,17.91,0,110.5,13.28,14.53,351.9
"2009-02-25 00:43:00",659952,2.429,41.37,4.407,1.394,14.83,105.6467,13.73,14.6,17.82,0,110.5,13.28,14.53,3.4
"2009-02-25 00:43:30",659953,1,42.4,13.56,0.337,12.71,105.6476,13.73,14.56,17.77,0,110.5,13.32,14.53,4.4
"2009-02-25 00:44:00",659954,0.93,58.18,6.649,0.168,12.52,105.6476,13.73,14.58,17.76,0,110.5,13.32,14.53,20.2
"2009-02-25 00:44:30",659955,1.154,63.55,6.874,0.14,12.48,105.6476,13.73,14.58,17.74,0,110.5,13.32,14.53,25.5
"2009-02-25 00:45:00",659956,2.385,79.5,8.25,1.435,14.79,105.6476,13.73,14.68,17.84,0,110.4,13.29,14.53,41.5
"2009-02-25 00:45:30",659957,1.236,82.6,16.77,1.093,14.31,105.6476,13.73,14.77,17.93,0,110.4,13.29,14.53,44.6
"2009-02-25 00:46:00",659958,0.469,75.25,12.08,0.068,12.66,105.6462,13.73,14.57,17.76,0,110.4,13.33,14.53,37.2
"2009-02-25 00:46:30",659959,0.463,56.69,12.08,0.124,12.56,105.6338,13.69,14.55,17.77,0,110.4,13.33,14.49,18.7
"2009-02-25 00:47:00",659960,0.816,54.97,8.38,0.291,12.64,105.6234,13.67,14.55,17.77,0,110.4,13.33,14.47,17.0
"2009-02-25 00:47:30",659961,1.13,75.05,7.663,0.192,12.82,105.6248,13.67,14.55,17.81,0,110.4,13.33,14.47,37.1
"2009-02-25 00:48:00",659962,1.052,62.48,8.63,0.108,13.06,105.6203,13.66,14.53,17.79,0,110.4,13.33,14.46,24.5
"2009-02-25 00:48:30",659963,2.566,82.5,10.07,1.357,15.28,105.6144,13.65,14.67,17.88,0,110.4,13.29,14.44,44.5
"2009-02-25 00:49:00",659964,2.655,83.1,8.02,1.332,15.16,105.6138,13.64,14.72,17.92,0,110.4,13.29,14.44,45.1
"2009-02-25 00:49:30",659965,2.829,85.4,6.561,1.236,15.38,105.6127,13.64,14.58,17.74,0,110.4,13.29,14.44,47.4
"2009-02-25 00:50:00",659966,1.642,76.33,1.016,0.039,12.97,105.5997,13.61,14.5,17.7,0,110.4,13.33,14.41,38.3
"2009-02-25 00:50:30",659967,1.601,73.94,2.023,0.063,12.75,105.5808,13.56,14.48,17.69,0,110.4,13.33,14.36,35.9
"2009-02-25 00:51:00",659968,1.509,68.74,1.081,0.065,12.74,105.58,13.56,14.49,17.7,0,110.4,13.33,14.36,30.7
"2009-02-25 00:51:30",659969,2.386,70.5,6.65,1.33,14.96,105.58,13.56,14.65,17.87,0,110.4,13.3,14.36,32.5
"2009-02-25 00:52:00",659970,1.532,62.11,1.405,0.701,12.78,105.58,13.56,14.52,17.79,0,110.4,13.3,14.36,24.1
"2009-02-25 00:52:30",659971,1.222,58.7,2.286,0.076,12.45,105.5803,13.56,14.48,17.72,0,110.4,13.34,14.36,20.7
"2009-02-25 00:53:00",659972,1.013,56.43,2.182,0.035,12.38,105.5821,13.56,14.46,17.72,0,110.4,13.34,14.36,18.4
"2009-02-25 00:53:30",659973,0.996,51.44,1.732,0.065,12.44,105.5824,13.56,14.46,17.68,0,110.4,13.34,14.36,13.4
"2009-02-25 00:54:00",659974,1.6,53.87,6.372,1.136,13.43,105.5769,13.55,14.43,17.67,0,110.4,13.3,14.35,15.9
"2009-02-25 00:54:30",659975,1.831,51.11,7.298,1.307,14.76,105.5711,13.53,14.63,17.88,0,110.4,13.3,14.33,13.1
"2009-02-25 00:55:00",659976,0.992,39.25,6.385,0.996,13.04,105.571,13.53,14.43,17.71,0,110.4,13.3,14.33,1.2
"2009-02-25 00:55:30",659977,0.489,32.02,5.881,0.1,12.5,105.5687,13.53,14.44,17.72,0,110.4,13.33,14.33,354.0
"2009-02-25 00:56:00",659978,0.483,28.47,7.095,0.108,12.53,105.5666,13.52,14.42,17.72,0,110.4,13.33,14.32,350.5
"2009-02-25 00:56:30",659979,0.335,18.37,5.036,0.075,12.67,105.5773,13.55,14.42,17.67,0,110.4,13.33,14.35,340.4
"2009-02-25 00:57:00",659980,0.453,23.11,7.085,0.088,12.64,105.5845,13.57,14.43,17.51,0,110.4,13.34,14.37,345.1
"2009-02-25 00:57:30",659981,0.872,14.42,13.93,1.067,13.7,105.5807,13.56,14.42,17.27,0,110.4,13.3,14.36,336.4
"2009-02-25 00:58:00",659982,1.502,2.18,15.53,1.34,15.03,105.5819,13.56,14.61,17.43,0,110.4,13.3,14.36,324.2
"2009-02-25 00:58:30",659983,1.416,355.1,11.31,1.024,13.61,105.568,13.53,14.55,17.31,0,110.4,13.3,14.33,317.1
"2009-02-25 00:59:00",659984,1.413,345.5,5.714,0.251,12.05,105.5469,13.47,14.37,17.03,0,110.4,13.34,14.27,307.5
"2009-02-25 00:59:30",659985,2.02,337.6,5.064,0.248,11.87,105.5212,13.41,14.32,17.08,0,110.4,13.34,14.21,299.6
"2009-02-25 01:00:00",659986,2.081,341,5.7,0.264,12,105.5018,13.36,14.27,17.04,0,110.3,13.34,14.16,303.0
"2009-02-25 01:00:30",659987,2.997,335,4.359,1.432,14.41,105.4798,13.3,14.41,17.35,0,110.3,13.31,14.10,297.0
"2009-02-25 01:01:00",659988,2.351,327.2,4.386,0.933,12.63,105.4668,13.27,14.21,17.07,0,110.3,13.31,14.07,289.2
"2009-02-25 01:01:30",659989,1.899,323.5,3.862,0.227,12.11,105.4471,13.22,14.16,17.03,0,110.3,13.35,14.02,285.5
"2009-02-25 01:02:00",659990,2.406,320.3,3.293,0.165,12.06,105.4465,13.22,14.15,17.15,0,110.3,13.35,14.01,282.3
"2009-02-25 01:02:30",659991,2.403,316.2,5.059,0.336,12.3,105.4465,13.22,14.15,17.18,0,110.3,13.35,14.01,278.2
"2009-02-25 01:03:00",659992,1.884,336.1,11.12,1.081,15.14,105.4465,13.22,14.25,17.36,0,110.3,13.32,14.01,298.1
"2009-02-25 01:03:30",659993,0.637,347.2,28.39,0.648,13.45,105.4465,13.22,14.27,17.56,0,110.3,13.32,14.01,309.2
"2009-02-25 01:04:00",659994,0.413,40.52,26.67,0.981,13.65,105.4465,13.22,14.14,17.86,0,110.3,13.32,14.01,2.5
"2009-02-25 01:04:30",659995,0.019,348.5,15.26,0.065,12.97,105.4465,13.22,14.12,18.18,0,110.3,13.35,14.01,310.5
"2009-02-25 01:05:00",659996,0.091,24.93,65.29,0.55,13.38,105.448,13.22,14.27,18.38,0,110.3,13.32,14.02,346.9
"2009-02-25 01:05:30",659997,1.776,119.2,10.64,1.278,16.02,105.4561,13.24,14.31,18.4,0,110.3,13.32,14.04,81.2
"2009-02-25 01:06:00",659998,1.014,94.7,12.58,1.257,14.37,105.4635,13.26,14.28,18.41,0,110.3,13.32,14.06,56.7
"2009-02-25 01:06:30",659999,0.165,129.6,5.726,0.117,11.91,105.4708,13.28,14.14,18.23,0,110.3,13.36,14.08,91.6
"2009-02-25 01:07:00",660000,0.492,101.9,26.79,0.085,11.87,105.474,13.29,14.15,18.24,0,110.3,13.36,14.08,63.9
"2009-02-25 01:07:30",660001,0.395,49.07,8.45,0.177,12.07,105.4848,13.31,14.15,18.31,0,110.3,13.36,14.11,11.1
"2009-02-25 01:08:00",660002,0.065,342.3,78.38,0.082,12.13,105.5073,13.37,14.18,18.27,0,110.3,13.36,14.17,304.3
"2009-02-25 01:08:30",660003,0.426,191.2,53.9,0.259,12.4,105.5218,13.41,14.21,18.34,0,110.3,13.36,14.21,153.2
"2009-02-25 01:09:00",660004,0.567,124.8,11.87,0.177,12.61,105.5301,13.43,14.23,18.39,0,110.3,13.36,14.23,86.8
"2009-02-25 01:09:30",660005,0.972,120.7,2.879,0.068,12.77,105.5531,13.49,14.25,18.21,0,110.3,13.36,14.29,82.7
"2009-02-25 01:10:00",660006,0.992,113.1,3.869,0.057,13.05,105.5638,13.52,14.29,18.16,0,110.3,13.36,14.31,75.1
"2009-02-25 01:10:30",660007,0.516,107.5,16.76,0.31,13.17,105.5665,13.52,14.32,18.15,0,110.3,13.36,14.32,69.5
"2009-02-25 01:11:00",660008,1.668,72.44,12.27,1.509,15.6,105.5763,13.55,14.51,18.3,0,110.3,13.32,14.35,34.4
"2009-02-25 01:11:30",660009,0.391,61.92,13.97,0.136,13.19,105.6086,13.63,14.36,17.99,0,110.3,13.36,14.43,23.9
"2009-02-25 01:12:00",660010,0.904,34.81,14.45,0.496,12.91,105.6155,13.65,14.38,17.12,0,110.3,13.36,14.45,356.8
"2009-02-25 01:12:30",660011,0.869,46.68,20.22,0.41,12.95,105.617,13.65,14.41,16.31,0,110.3,13.36,14.45,8.7
"2009-02-25 01:13:00",660012,1.253,357.3,28.87,0.607,12.98,105.6167,13.65,14.43,15.57,0,110.3,13.36,14.45,319.3
"2009-02-25 01:13:30",660013,1.795,6.451,25.34,0.983,13.91,105.6176,13.65,14.44,15.13,0,110.3,13.32,14.45,328.5
"2009-02-25 01:14:00",660014,1.817,26.42,18.14,1.369,14.7,105.612,13.64,14.63,15.26,0,110.3,13.32,14.44,348.4
"2009-02-25 01:14:30",660015,3.001,12.2,18.68,1.671,15.5,105.584,13.57,14.58,15.16,0,110.3,13.32,14.37,334.2
"2009-02-25 01:15:00",660016,3.701,2.321,26.7,1.845,16.16,105.5837,13.57,14.62,15.22,0,110.3,13.32,14.37,324.3
"2009-02-25 01:15:30",660017,3.167,339.7,10.52,0.773,12.84,105.5781,13.55,14.47,15.34,0,110.3,13.32,14.35,301.7
"2009-02-25 01:16:00",660018,2.14,341.5,14.63,0.467,12.06,105.5756,13.55,14.39,14.73,0,110.3,13.36,14.35,303.5
"2009-02-25 01:16:30",660019,1.825,348.2,20.72,0.352,11.76,105.5612,13.51,14.39,15.18,0,110.3,13.36,14.31,310.2
"2009-02-25 01:17:00",660020,3.743,297.7,31.23,0.792,11.82,105.5251,13.42,14.35,16.06,0,110.3,13.36,14.22,259.7
"2009-02-25 01:17:30",660021,6.418,258.9,7.069,1.838,14.02,105.4464,13.22,14.34,18.63,0,110.3,13.33,14.01,220.9
"2009-02-25 01:18:00",660022,6.029,253.8,7.67,1.506,13.92,105.3646,13.01,14.28,19.46,0,110.3,13.33,13.80,215.8
"2009-02-25 01:18:30",660023,5.96,250.2,7.765,0.986,12.91,105.3212,12.89,14.01,19.02,0,110.3,13.33,13.69,212.2
"2009-02-25 01:19:00",660024,6.892,253.5,7.998,1.32,13.91,105.313,12.87,14.08,19.02,0,110.3,13.34,13.67,215.5
"2009-02-25 01:19:30",660025,8.62,261.8,8.12,1.273,16.56,105.313,12.87,14.19,19.49,0,110.3,13.34,13.67,223.8
"2009-02-25 01:20:00",660026,8.82,262.9,6.882,1.361,16.1,105.3077,12.86,14.2,19.86,0,110.3,13.34,13.66,224.9
"2009-02-25 01:20:30",660027,6.053,254,7.235,0.884,12.35,105.28,12.79,13.89,19.7,0,110.3,13.34,13.59,216.0
"2009-02-25 01:21:00",660028,5.412,250.1,13.54,0.76,11.63,105.2792,12.79,13.82,19.66,0,110.3,13.36,13.58,212.1
"2009-02-25 01:21:30",660029,4.875,257.6,5.369,0.8,11.83,105.2719,12.77,13.77,19.36,0,110.2,13.37,13.57,219.6
"2009-02-25 01:22:00",660030,6.62,269.1,5.339,1.209,14.03,105.2665,12.75,13.92,18.63,0,110.2,13.34,13.55,231.1
"2009-02-25 01:22:30",660031,6.701,266.2,7.846,0.942,13.09,105.2637,12.75,13.74,18.31,0,110.3,13.34,13.54,228.2
"2009-02-25 01:23:00",660032,5.744,258.2,4.848,0.358,12.53,105.2735,12.77,13.72,18.41,0,110.3,13.37,13.57,220.2
"2009-02-25 01:23:30",660033,6.83,258.7,3.997,1.152,14.14,105.2792,12.79,13.76,18.19,0,110.3,13.34,13.58,220.7
"2009-02-25 01:24:00",660034,6.989,252.6,7.316,1.298,13.9,105.2837,12.8,13.79,18.14,0,110.3,13.34,13.60,214.6
"2009-02-25 01:24:30",660035,10.41,276.9,5.437,1.556,16.6,105.3047,12.85,14.06,17.75,0,110.3,13.34,13.65,238.9
"2009-02-25 01:25:00",660036,9.4,279.2,7.148,1.32,15.86,105.3011,12.84,13.99,17.31,0,110.3,13.34,13.64,241.2
"2009-02-25 01:25:30",660037,7.279,270.7,8.39,0.728,11.88,105.2888,12.81,13.76,16.91,0,110.3,13.37,13.61,232.7
"2009-02-25 01:26:00",660038,7.674,273,4.688,0.563,12.11,105.2869,12.81,13.88,16.88,0,110.3,13.37,13.60,235.0
"2009-02-25 01:26:30",660039,8,274.4,13.34,1.304,13.42,105.2852,12.8,13.78,16.78,0,110.3,13.34,13.60,236.4
"2009-02-25 01:27:00",660040,6.903,283.9,3.376,0.283,11.79,105.2767,12.78,13.76,16.78,0,110.3,13.37,13.58,245.9
"2009-02-25 01:27:30",660041,6.251,287.9,3.823,0.237,11.89,105.2751,12.78,13.69,16.75,0,110.2,13.37,13.57,249.9
"2009-02-25 01:28:00",660042,7.022,298.7,10.75,0.926,13.32,105.2596,12.74,13.88,16.77,0,110.2,13.33,13.53,260.7
"2009-02-25 01:28:30",660043,7.518,303,8.31,1.435,14.84,105.2605,12.74,13.75,16.47,0,110.2,13.33,13.54,265.0
"2009-02-25 01:29:00",660044,6.472,295.9,12.77,1.423,16.32,105.2615,12.74,13.94,16.61,0,110.2,13.33,13.54,257.9
"2009-02-25 01:29:30",660045,6.754,287.8,8.17,1.435,14.76,105.2605,12.74,13.92,16.81,0,110.2,13.33,13.54,249.8
"2009-02-25 01:30:00",660046,5.75,286.7,3.544,0.302,11.52,105.2594,12.74,13.67,16.72,0,110.2,13.36,13.53,248.7
"2009-02-25 01:30:30",660047,6.71,296,7.641,1.192,13.81,105.2321,12.67,13.8,17.03,0,110.2,13.33,13.46,258.0
"2009-02-25 01:31:00",660048,5.548,292.1,2.829,0.271,11.4,105.2281,12.66,13.73,16.88,0,110.2,13.36,13.45,254.1
"2009-02-25 01:31:30",660049,6.305,301.6,8.27,0.599,11.33,105.2108,12.61,13.55,16.83,0,110.2,13.36,13.41,263.6
"2009-02-25 01:32:00",660050,5.421,297.6,4.533,0.315,11.61,105.2002,12.58,13.54,16.83,0,110.2,13.36,13.38,259.6
"2009-02-25 01:32:30",660051,6.045,292.8,4.486,0.624,12.62,105.2038,12.59,13.68,16.96,0,110.2,13.34,13.39,254.8
"2009-02-25 01:33:00",660052,8.86,305,6.156,0.904,16.25,105.2039,12.59,13.67,17,0,110.2,13.34,13.39,267.0
"2009-02-25 01:33:30",660053,10.03,297.5,11.46,1.467,16.26,105.1924,12.56,13.78,17.26,0,110.2,13.34,13.36,259.5
"2009-02-25 01:34:00",660054,9.95,304.3,5.981,1.647,14.67,105.1809,12.54,13.69,17.28,0,110.2,13.34,13.33,266.3
"2009-02-25 01:34:30",660055,9.26,295.6,5.493,1.322,13.48,105.1767,12.52,13.62,17.28,0,110.2,13.34,13.32,257.6
"2009-02-25 01:35:00",660056,9.38,294.6,5.289,1.146,12.57,105.1788,12.53,13.48,16.9,0,110.2,13.34,13.33,256.6
"2009-02-25 01:35:30",660057,8.33,287.4,2.976,0.265,11.94,105.1892,12.56,13.44,16.67,0,110.2,13.38,13.35,249.4
"2009-02-25 01:36:00",660058,8.08,287.7,1.454,0.244,12.18,105.2087,12.61,13.47,16.45,0,110.2,13.38,13.40,249.7
"2009-02-25 01:36:30",660059,7.908,286.7,1.27,0.526,12.49,105.213,12.62,13.48,16.3,0,110.2,13.34,13.41,248.7
"2009-02-25 01:37:00",660060,7.905,289.5,7.978,1.041,13.74,105.2215,12.64,13.63,16.47,0,110.2,13.34,13.44,251.5
"2009-02-25 01:37:30",660061,9.46,299.6,7.243,1.321,16.3,105.2451,12.7,13.79,16.46,0,110.2,13.34,13.50,261.6
"2009-02-25 01:38:00",660062,10.11,298.8,6.69,1.106,16.32,105.2471,12.7,13.76,16.61,0,110.2,13.34,13.50,260.8
"2009-02-25 01:38:30",660063,9.83,290.2,7.544,1.003,13.11,105.2471,12.7,13.67,16.78,0,110.2,13.34,13.50,252.2
"2009-02-25 01:39:00",660064,10.55,290.9,7.516,1.306,14.13,105.2466,12.7,13.67,17.01,0,110.2,13.34,13.50,252.9
"2009-02-25 01:39:30",660065,9.66,284.8,2.37,0.318,11.63,105.2384,12.68,13.54,16.79,0,110.2,13.38,13.48,246.8
"2009-02-25 01:40:00",660066,9.52,284.9,1.744,0.264,11.74,105.2299,12.66,13.54,16.72,0,110.2,13.38,13.46,246.9
"2009-02-25 01:40:30",660067,8.78,286.2,1.78,0.515,12.1,105.2169,12.63,13.53,16.79,0,110.2,13.38,13.42,248.2
"2009-02-25 01:41:00",660068,9.56,293.9,7.635,1.201,15.44,105.2135,12.62,13.78,16.92,0,110.2,13.34,13.42,255.9
"2009-02-25 01:41:30",660069,9.57,295.5,6.781,1.266,16.05,105.2175,12.63,13.8,16.63,0,110.2,13.34,13.43,257.5
"2009-02-25 01:42:00",660070,9.9,295.5,7.928,1.283,15.5,105.2367,12.68,13.78,16.52,0,110.2,13.34,13.47,257.5
"2009-02-25 01:42:30",660071,9.39,294.9,7.732,1.481,14.44,105.2392,12.68,13.66,16.59,0,110.2,13.34,13.48,256.9
"2009-02-25 01:43:00",660072,9.39,296.4,6.79,0.956,13.8,105.2406,12.69,13.73,16.56,0,110.2,13.34,13.48,258.4
"2009-02-25 01:43:30",660073,8.44,286.3,5.323,0.82,11.98,105.2463,12.7,13.55,16.27,0,110.2,13.34,13.50,248.3
"2009-02-25 01:44:00",660074,8.42,284.8,3.201,0.382,11.76,105.2471,12.7,13.55,16.21,0,110.2,13.38,13.50,246.8
"2009-02-25 01:44:30",660075,9.42,282.4,1.946,0.431,12.15,105.2471,12.7,13.55,16.21,0,110.2,13.34,13.50,244.4
"2009-02-25 01:45:00",660076,9.22,283.7,5.358,1.065,13.63,105.2471,12.7,13.7,16.37,0,110.2,13.34,13.50,245.7
"2009-02-25 01:45:30",660077,11.58,293.3,5.057,1.105,16.84,105.2471,12.7,13.81,16.46,0,110.2,13.34,13.50,255.3
"2009-02-25 01:46:00",660078,11.72,297.4,6.715,1.178,16.39,105.2471,12.7,13.85,16.5,0,110.2,13.34,13.50,259.4
"2009-02-25 01:46:30",660079,10.86,296.6,7.017,1.218,15.27,105.2471,12.7,13.7,16.34,0,110.2,13.34,13.50,258.6
"2009-02-25 01:47:00",660080,9.2,292.7,6.921,1.097,13.04,105.2471,12.7,13.73,16.46,0,110.2,13.33,13.50,254.7
"2009-02-25 01:47:30",660081,8.68,290.6,1.506,0.252,11.61,105.2471,12.7,13.57,16.31,0,110.2,13.37,13.50,252.6
"2009-02-25 01:48:00",660082,9.15,288.9,2.327,0.428,11.95,105.2471,12.7,13.59,16.02,0,110.2,13.37,13.50,250.9
"2009-02-25 01:48:30",660083,9.6,289.2,2.261,0.262,12.44,105.2483,12.71,13.61,15.85,0,110.2,13.37,13.50,251.2
"2009-02-25 01:49:00",660084,9,289.6,4.215,0.67,12.84,105.2609,12.74,13.71,15.93,0,110.2,13.34,13.54,251.6